Timestamp[UTC];2m Lufttemperatur [degC] (tas);Stations-Luftdruck [Pa] (ps);relative Luftfeuchtigkeit [%] (hurs);spezifische Luftfeuchtigkeit [kg/kg] (huss);Niederschlagsmenge [mm] (pr);Windgeschwindigkeit in 2m [m/s] (sfcWind);Windrichtung [deg];maximale Windgeschwindigkeit [m/s] (wsgsmax);u-Windkomponente [m/s] (uas);v-Windkomponente [m/s] (vas);Sonneneinstrahlung [W/m2];Blitzrate [n];Blitzentfernung [km];Bodenfeuchte in 5cm Tiefe [vol%];Bodenfeuchte in 15cm Tiefe [vol%];Bodenfeuchte in 30cm Tiefe [vol%];Bodenfeuchte in 60cm Tiefe [vol%];Bodentemperatur in 5cm Tiefe [degC];Bodentemperatur in 15cm Tiefe [degC];Bodentemperatur in 30cm Tiefe [degC];Bodentemperatur in 60cm Tiefe [degC];Matrixpotential in 30cm Tiefe [kPa];Bodenfeuchte aus CRNS [vol%] (mrso);Neutronen Anzahl [N/h]
2022-10-01 00:00:00;12,4;100080;72;0,0064;0,25;2,0;201;4,4;-1,84;-0,72;0;0;0;29,5;31,3;32,3;16,3;11,7;12,7;13,4;14,1;-15,6;32,8;1334
2022-10-01 01:00:00;11,1;99980;83;0,0068;1,39;2,4;177;4,4;-2,35;0,15;0;0;0;29,7;31,3;32,2;16,3;11,7;12,6;13,3;14,1;-15,8;32,5;1435
2022-10-01 02:00:00;11,0;99836;85;0,007;1,82;3,6;183;7,0;-3,61;-0,24;0;0;0;30,6;31,3;32,2;16,3;11,7;12,5;13,3;14,1;-15,9;32,3;1460
2022-10-01 03:00:00;11,1;99776;87;0,0072;3,05;2,4;196;6,4;-2,28;-0,68;0;0;0;31,7;31,6;32,2;16,3;11,6;12,5;13,3;14,1;-16,0;31,5;1380
2022-10-01 04:00:00;10,5;99720;94;0,0075;2,96;4,5;237;9,0;-2,24;-3,77;0;0;0;33,2;32,1;32,2;16,3;11,6;12,4;13,2;14,1;-16,0;32,0;1449
2022-10-01 05:00:00;11,4;99643;90;0,0076;0,0;4,5;255;9,0;-1,19;-4,38;0;0;0;33,6;33,0;32,2;16,3;11,6;12,3;13,2;14,1;-15,9;31,8;1492
2022-10-01 06:00:00;12,3;99683;86;0,0077;0,02;4,0;257;7,6;-0,87;-3,88;8;0;0;33,4;33,4;32,3;16,3;11,6;12,3;13,2;14,1;-15,6;31,9;1318
2022-10-01 07:00:00;12,8;99720;85;0,0078;0,44;3,7;266;6,7;-0,19;-3,67;60;0;0;33,3;33,6;32,5;16,3;11,7;12,3;13,1;14,1;-15,0;32,0;1346
2022-10-01 08:00:00;13,8;99745;82;0,0081;0,0;3,8;260;7,2;-0,61;-3,7;115;0;0;33,2;33,7;32,7;16,3;12,1;12,3;13,1;14,1;-14,4;32,2;1433
2022-10-01 09:00:00;14,7;99802;82;0,0086;0,03;4,6;269;7,9;-0,06;-4,56;152;0;0;33,1;33,8;32,9;16,3;12,6;12,4;13,1;14,1;-13,8;32,0;1441
2022-10-01 10:00:00;16,2;99827;79;0,0091;0,0;5,4;281;10,1;1,11;-5,29;342;0;0;32,9;33,8;33,0;16,3;13,3;12,6;13,0;14,1;-13,4;32,3;1451
2022-10-01 11:00:00;16,8;99878;74;0,0088;0,0;4,5;286;8,8;1,32;-4,32;286;0;0;32,8;33,8;33,1;16,3;14,1;12,9;13,0;14,1;-13,1;32,2;1305
2022-10-01 12:00:00;17,5;99927;68;0,0085;0,0;4,8;291;10,2;1,69;-4,45;205;0;0;32,6;33,7;33,2;16,3;14,3;13,2;13,1;14,1;-13,0;31,5;1441
2022-10-01 13:00:00;18,3;99973;66;0,0087;0,0;3,5;289;8,3;1,11;-3,26;440;2;1;32,5;33,7;33,3;16,3;14,8;13,5;13,1;14,1;-12,9;31,2;1438
2022-10-01 14:00:00;18,8;100054;59;0,008;0,0;4,8;287;10,6;1,44;-4,61;301;0;0;32,3;33,6;33,3;16,3;15,3;13,8;13,2;14,1;-12,9;31,3;1480
2022-10-01 15:00:00;18,0;100140;62;0,0079;0,0;4,0;296;10,1;1,81;-3,52;128;0;0;32,2;33,6;33,3;16,3;15,3;14,1;13,3;14,1;-12,9;31,4;1266
2022-10-01 16:00:00;16,5;100275;64;0,0075;0,0;2,0;292;3,9;0,8;-1,82;14;0;0;32,1;33,5;33,3;16,3;14,9;14,2;13,4;14,1;-12,9;31,0;1443
2022-10-01 17:00:00;15,0;100400;69;0,0073;0,0;0,7;310;1,3;0,45;-0,53;0;0;0;32,0;33,4;33,3;16,3;14,4;14,2;13,5;14,1;-12,9;30,9;1339
2022-10-01 18:00:00;14,5;100487;69;0,0071;0,0;1,2;292;2,2;0,44;-1,11;0;0;0;31,9;33,4;33,3;16,3;14,0;14,2;13,6;14,1;-12,9;30,6;1338
2022-10-01 19:00:00;12,8;100628;76;0,0069;0,0;1,2;279;2,2;0,27;-1,08;0;0;0;31,9;33,3;33,3;16,3;13,6;14,0;13,7;14,1;-13,0;30,1;1337
2022-10-01 20:00:00;11,8;100700;80;0,0069;0,0;2,0;272;3,0;0,1;-2,02;0;0;0;31,8;33,2;33,3;16,3;13,2;13,9;13,7;14,1;-13,0;29,9;1379
2022-10-01 21:00:00;11,8;100760;81;0,007;0,0;2,3;272;3,7;0,09;-2,32;0;0;0;31,8;33,2;33,2;16,3;12,8;13,7;13,8;14,1;-13,0;29,7;1212
2022-10-01 22:00:00;11,9;100830;83;0,0071;0,0;2,2;276;3,4;0,23;-2,19;0;0;0;31,7;33,1;33,2;16,3;12,6;13,5;13,8;14,1;-13,0;29,8;1332
2022-10-01 23:00:00;11,8;100850;85;0,0073;0,0;1,7;280;3,1;0,29;-1,7;0;0;0;31,6;33,1;33,2;16,3;12,4;13,3;13,7;14,1;-13,0;29,8;1343
2022-10-02 00:00:00;12,1;100878;87;0,0076;0,0;1,2;291;2,1;0,42;-1,08;0;0;0;31,6;33,0;33,2;16,3;12,3;13,2;13,7;14,2;-13,0;29,4;1333
2022-10-02 01:00:00;13,4;100902;86;0,0081;0,0;2,5;275;4,5;0,19;-2,53;0;0;0;31,6;33,0;33,2;16,3;12,4;13,1;13,7;14,2;-13,1;29,5;1267
2022-10-02 02:00:00;13,9;100897;85;0,0084;0,0;3,0;270;5,0;0,02;-3,02;0;0;0;31,5;33,0;33,2;16,3;12,5;13,1;13,6;14,2;-13,1;29,6;1299
2022-10-02 03:00:00;14,0;100890;85;0,0084;0,65;2,7;274;4,5;0,16;-2,66;0;0;0;31,6;32,9;33,1;16,3;12,6;13,0;13,6;14,2;-13,1;30,0;1333
2022-10-02 04:00:00;14,0;100905;86;0,0085;0,24;2,8;273;4,3;0,17;-2,75;0;0;0;31,7;33,0;33,1;16,3;12,6;13,0;13,6;14,2;-13,1;29,9;1337
2022-10-02 05:00:00;14,0;100912;86;0,0085;0,1;2,9;275;4,7;0,26;-2,91;0;0;0;31,7;33,0;33,1;16,3;12,7;13,0;13,6;14,2;-13,1;30,0;1404
2022-10-02 06:00:00;13,8;100948;88;0,0086;0,32;2,7;280;4,8;0,5;-2,67;14;0;0;31,7;33,0;33,1;16,3;12,8;13,1;13,5;14,2;-13,1;30,3;1297
2022-10-02 07:00:00;14,0;100990;88;0,0087;0,0;2,8;281;5,1;0,54;-2,7;50;0;0;31,8;33,0;33,1;16,3;12,9;13,1;13,5;14,2;-13,1;29,9;1283
2022-10-02 08:00:00;14,1;101030;86;0,0085;0,05;3,0;282;6,0;0,63;-2,9;66;0;0;31,8;33,1;33,2;16,3;13,1;13,1;13,5;14,2;-13,1;30,2;1350
2022-10-02 09:00:00;14,4;101040;85;0,0086;0,0;3,1;286;6,0;0,88;-2,94;193;0;0;31,7;33,1;33,2;16,3;13,4;13,2;13,5;14,2;-13,1;30,3;1258
2022-10-02 10:00:00;15,0;101062;83;0,0088;0,0;2,8;296;6,7;1,25;-2,54;200;0;0;31,7;33,1;33,2;16,3;14,1;13,4;13,5;14,2;-13,1;29,9;1315
2022-10-02 11:00:00;15,3;101118;81;0,0087;0,0;3,2;296;6,5;1,42;-2,88;182;0;0;31,7;33,0;33,2;16,3;14,4;13,6;13,5;14,2;-13,1;29,8;1283
2022-10-02 12:00:00;15,7;101148;81;0,0089;0,0;3,2;293;6,4;1,26;-2,96;239;0;0;31,6;33,0;33,2;16,3;14,8;13,8;13,6;14,2;-13,1;29,9;1277
2022-10-02 13:00:00;16,0;101140;78;0,0087;0,0;3,0;290;5,9;1,05;-2,8;194;0;0;31,5;33,0;33,2;16,3;15,1;14,0;13,6;14,2;-13,2;29,7;1300
2022-10-02 14:00:00;15,9;101170;77;0,0086;0,0;3,0;289;6,7;1,02;-2,82;134;0;0;31,4;32,9;33,2;16,3;15,2;14,2;13,7;14,2;-13,2;29,4;1229
2022-10-02 15:00:00;15,8;101188;76;0,0084;0,0;2,7;292;5,7;1,06;-2,53;117;0;0;31,4;32,9;33,1;16,3;15,1;14,4;13,7;14,2;-13,2;29,3;1216
2022-10-02 16:00:00;15,4;101253;78;0,0084;0,0;2,6;295;4,7;1,12;-2,34;35;0;0;31,3;32,9;33,1;16,3;14,9;14,4;13,8;14,2;-13,2;29,8;1307
2022-10-02 17:00:00;14,4;101357;81;0,0081;0,0;2,1;294;4,3;0,87;-1,91;4;0;0;31,3;32,8;33,1;16,3;14,5;14,4;13,9;14,2;-13,2;29,8;1169
2022-10-02 18:00:00;13,8;101477;83;0,0081;0,0;2,2;295;4,4;0,93;-1,96;0;0;0;31,2;32,8;33,1;16,3;14,1;14,3;13,9;14,2;-13,3;30,3;1352
2022-10-02 19:00:00;13,3;101560;86;0,008;0,0;2,0;295;4,0;0,85;-1,8;0;0;0;31,2;32,7;33,1;16,3;13,8;14,2;14,0;14,2;-13,3;30,1;1189
2022-10-02 20:00:00;12,8;101636;87;0,0079;0,0;1,9;291;3,5;0,66;-1,74;0;0;0;31,1;32,7;33,1;16,3;13,5;14,1;14,0;14,3;-13,3;30,1;1276
2022-10-02 21:00:00;12,4;101713;87;0,0076;0,0;1,5;300;2,8;0,76;-1,29;0;0;0;31,1;32,7;33,1;16,4;13,2;13,9;14,0;14,3;-13,4;30,2;1247
2022-10-02 22:00:00;11,7;101793;86;0,0072;0,0;1,5;299;2,7;0,76;-1,34;0;0;0;31,1;32,6;33,0;16,4;13,0;13,8;14,0;14,3;-13,4;29,9;1289
2022-10-02 23:00:00;11,3;101813;86;0,007;0,0;1,7;298;3,2;0,81;-1,48;0;0;0;31,0;32,6;33,0;16,4;12,7;13,6;14,0;14,3;-13,4;30,0;1239
2022-10-03 00:00:00;10,5;101845;88;0,0069;0,0;1,7;281;2,8;0,34;-1,69;0;0;0;31,0;32,5;33,0;16,4;12,5;13,5;14,0;14,3;-13,5;30,1;1333
2022-10-03 01:00:00;10,2;101878;89;0,0067;0,0;1,7;283;3,0;0,38;-1,62;0;0;0;30,9;32,5;33,0;16,4;12,2;13,3;13,9;14,3;-13,5;29,9;1289
2022-10-03 02:00:00;10,3;101899;89;0,0069;0,0;2,0;281;3,3;0,4;-1,95;0;0;0;30,9;32,4;33,0;16,4;12,0;13,2;13,9;14,3;-13,6;29,8;1260
2022-10-03 03:00:00;10,8;101920;88;0,007;0,0;1,7;300;3,6;0,9;-1,48;0;0;0;30,9;32,4;32,9;16,4;12,0;13,0;13,8;14,4;-13,6;29,6;1130
2022-10-03 04:00:00;9,8;101948;91;0,0067;0,0;0,8;90;1,6;0,5;0,23;0;0;0;30,8;32,4;32,9;16,4;11,9;12,9;13,8;14,4;-13,7;29,4;1281
2022-10-03 05:00:00;9,4;101978;93;0,0067;0,0;0,6;157;1,4;0,11;-0,25;3;0;0;30,8;32,4;32,9;16,4;11,8;12,8;13,7;14,3;-13,7;29,3;1184
2022-10-03 06:00:00;10,2;101990;94;0,0071;0,0;1,4;281;2,3;0,11;-1,36;72;0;0;30,8;32,3;32,9;16,4;11,9;12,8;13,7;14,4;-13,8;28,9;1279
2022-10-03 07:00:00;11,4;102020;92;0,0075;0,0;0,5;304;1,1;0,27;-0,43;128;0;0;30,8;32,3;32,9;16,4;12,1;12,7;13,6;14,4;-13,8;29,3;1232
2022-10-03 08:00:00;12,6;102055;90;0,008;0,0;0,9;280;2,2;0,34;-0,72;237;0;0;30,7;32,3;32,9;16,4;12,7;12,8;13,6;14,4;-13,9;29,0;1238
2022-10-03 09:00:00;13,6;102070;85;0,0081;0,0;1,3;295;2,7;0,54;-1,15;300;0;0;30,7;32,2;32,8;16,4;13,6;12,9;13,5;14,3;-13,9;29,1;1245
2022-10-03 10:00:00;14,7;102038;80;0,0082;0,0;1,2;288;3,1;0,4;-1,15;399;0;0;30,7;32,2;32,8;16,4;14,5;13,2;13,5;14,3;-14,0;29,1;1220
2022-10-03 11:00:00;15,8;102008;73;0,008;0,0;1,4;278;3,2;0,18;-1,32;464;0;0;30,6;32,2;32,8;16,4;15,4;13,6;13,5;14,3;-14,1;29,1;1200
2022-10-03 12:00:00;16,1;101993;68;0,0076;0,0;1,4;293;3,6;0,51;-1,14;330;0;0;30,5;32,2;32,8;16,4;16,0;14,0;13,5;14,3;-14,1;28,9;1279
2022-10-03 13:00:00;16,6;101973;66;0,0076;0,0;2,0;279;3,9;0,31;-1,92;327;0;0;30,4;32,1;32,8;16,4;16,4;14,4;13,6;14,3;-14,2;28,9;1272
2022-10-03 14:00:00;16,2;101952;62;0,007;0,0;1,0;300;2,1;0,4;-0,84;139;0;0;30,3;32,1;32,8;16,4;16,3;14,7;13,7;14,3;-14,2;29,1;1237
2022-10-03 15:00:00;16,1;101907;63;0,0071;0,0;0,4;243;0,9;-0,09;-0,25;98;0;0;30,3;32,0;32,7;16,4;15,9;14,9;13,9;14,3;-14,3;29,2;1232
2022-10-03 16:00:00;15,4;101875;68;0,0072;0,0;0,5;297;0,9;0,2;-0,46;42;0;0;30,2;32,0;32,7;16,4;15,6;15,0;14,0;14,3;-14,4;29,1;1286
2022-10-03 17:00:00;13,5;101852;78;0,0074;0,0;0,3;245;0,8;0,22;-0,12;1;0;0;30,2;31,9;32,7;16,4;15,1;14,9;14,1;14,3;-14,5;29,3;1245
2022-10-03 18:00:00;12,0;101853;86;0,0074;0,0;0,4;231;1,0;0,28;-0,06;0;0;0;30,2;31,9;32,7;16,4;14,6;14,8;14,2;14,3;-14,6;29,4;1227
2022-10-03 19:00:00;11,5;101820;86;0,0071;0,0;0,6;172;1,1;0,45;-0,02;0;0;0;30,1;31,9;32,7;16,4;14,2;14,7;14,2;14,3;-14,7;29,5;1283
2022-10-03 20:00:00;10,8;101830;88;0,007;0,0;0,5;177;1,0;0,5;0,0;0;0;0;30,1;31,8;32,6;16,4;13,8;14,5;14,2;14,3;-14,8;29,5;1235
2022-10-03 21:00:00;10,0;101807;88;0,0066;0,0;0,4;230;0,8;0,25;-0,01;0;0;0;30,1;31,8;32,6;16,4;13,4;14,3;14,3;14,3;-14,8;29,2;1234
2022-10-03 22:00:00;9,2;101782;90;0,0064;0,0;0,7;110;1,3;0,58;0,25;0;0;0;30,0;31,8;32,6;16,4;13,0;14,1;14,3;14,3;-14,9;29,4;1293
2022-10-03 23:00:00;8,2;101750;94;0,0062;0,0;0,5;160;1,1;0,36;-0,1;0;0;0;30,0;31,7;32,6;16,4;12,6;13,8;14,2;14,4;-15,0;29,2;1327
2022-10-04 00:00:00;7,9;101700;93;0,0061;0,0;0,7;40;1,4;0,52;0,4;0;0;0;30,0;31,7;32,6;16,4;12,3;13,6;14,2;14,4;-15,1;29,3;1318
2022-10-04 01:00:00;8,0;101655;94;0,0062;0,0;0,5;25;0,9;0,43;0,24;0;0;0;29,9;31,6;32,5;16,4;12,1;13,4;14,1;14,4;-15,2;29,3;1268
2022-10-04 02:00:00;7,8;101628;95;0,0062;0,02;0,4;104;0,9;0,36;0,08;0;0;0;29,9;31,6;32,5;16,4;11,9;13,2;14,1;14,4;-15,3;29,3;1226
2022-10-04 03:00:00;7,2;101587;95;0,0059;0,02;0,4;47;1,0;0,32;0,29;0;0;0;29,9;31,6;32,5;16,4;11,7;13,1;14,0;14,4;-15,4;29,1;1210
2022-10-04 04:00:00;7,2;101545;95;0,0059;0,02;1,0;39;1,8;0,8;0,66;0;0;0;29,9;31,5;32,5;16,4;11,5;12,9;13,9;14,5;-15,4;28,8;1231
2022-10-04 05:00:00;7,3;101520;95;0,006;0,04;1,3;51;2,6;0,79;1,01;1;0;0;29,8;31,5;32,4;16,5;11,3;12,7;13,9;14,4;-15,6;28,9;1210
2022-10-04 06:00:00;7,7;101495;97;0,0062;0,02;1,2;71;2,4;0,39;1,11;34;0;0;29,8;31,5;32,4;16,5;11,1;12,6;13,8;14,5;-15,6;28,7;1277
2022-10-04 07:00:00;8,8;101498;98;0,0068;0,0;1,5;70;2,7;0,48;1,38;139;0;0;29,8;31,5;32,4;16,5;11,2;12,5;13,7;14,5;-15,8;28,5;1290
2022-10-04 08:00:00;10,2;101507;94;0,0072;0,0;1,8;63;2,8;0,79;1,56;178;0;0;29,8;31,4;32,4;16,5;11,7;12,4;13,6;14,4;-15,8;28,6;1389
2022-10-04 09:00:00;12,6;101462;90;0,008;0,0;2,1;70;3,7;0,71;2,0;387;0;0;29,8;31,4;32,4;16,5;12,3;12,5;13,5;14,4;-16,0;28,5;1251
2022-10-04 10:00:00;15,4;101420;78;0,0085;0,0;2,6;82;4,5;0,43;2,41;479;0;0;29,8;31,4;32,3;16,5;13,5;12,7;13,5;14,4;-16,0;28,3;1310
2022-10-04 11:00:00;17,1;101380;71;0,0086;0,0;2,5;89;4,8;0,05;2,39;485;0;0;29,7;31,4;32,3;16,5;14,5;13,0;13,4;14,4;-16,2;28,5;1245
2022-10-04 12:00:00;18,3;101335;68;0,0089;0,0;2,7;86;5,2;0,2;2,67;460;0;0;29,6;31,4;32,3;16,5;15,1;13,5;13,5;14,4;-16,2;28,7;1338
2022-10-04 13:00:00;19,1;101272;67;0,0091;0,0;3,0;84;5,7;0,32;2,97;377;0;0;29,5;31,3;32,3;16,5;15,5;13,9;13,5;14,4;-16,3;28,8;1319
2022-10-04 14:00:00;19,5;101223;66;0,0092;0,0;3,4;90;6,0;-0,05;3,35;279;0;0;29,4;31,3;32,3;16,5;15,6;14,2;13,6;14,4;-16,4;28,9;1322
2022-10-04 15:00:00;19,7;101202;62;0,0087;0,0;2,3;134;4,8;-1,12;1,52;158;0;0;29,3;31,2;32,2;16,5;15,4;14,4;13,7;14,3;-16,6;28,7;1385
2022-10-04 16:00:00;18,3;101208;57;0,0074;0,0;0,9;219;2,1;-0,65;-0,42;42;0;0;29,2;31,2;32,2;16,5;15,2;14,5;13,8;14,3;-16,7;28,6;1321
2022-10-04 17:00:00;15,8;101240;62;0,0068;0,0;0,9;288;2,0;0,28;-0,86;0;0;0;29,2;31,2;32,2;16,5;14,8;14,6;13,9;14,3;-16,8;28,6;1366
2022-10-04 18:00:00;14,5;101277;68;0,0069;0,0;1,1;276;2,2;0,15;-1,02;0;0;0;29,1;31,1;32,2;16,5;14,3;14,5;14,0;14,3;-16,9;28,3;1348
2022-10-04 19:00:00;13,8;101325;75;0,0073;0,0;2,4;276;3,8;0,23;-2,36;0;0;0;29,1;31,1;32,2;16,5;14,0;14,4;14,1;14,3;-17,0;28,3;1316
2022-10-04 20:00:00;13,0;101310;79;0,0073;0,0;1,2;278;2,0;0,16;-1,14;0;0;0;29,1;31,0;32,1;16,5;13,7;14,3;14,1;14,3;-17,1;28,5;1298
2022-10-04 21:00:00;11,6;101320;83;0,007;0,0;0,7;226;1,3;0,21;-0,47;0;0;0;29,0;31,0;32,1;16,5;13,4;14,2;14,2;14,3;-17,2;28,9;1338
2022-10-04 22:00:00;10,2;101317;86;0,0066;0,0;0,5;43;1,2;0,35;0,34;0;0;0;29,0;31,0;32,1;16,5;13,1;14,0;14,2;14,3;-17,3;28,7;1270
2022-10-04 23:00:00;9,6;101285;89;0,0065;0,0;0,6;173;1,2;0,41;-0,02;0;0;0;29,0;30,9;32,1;16,5;12,8;13,8;14,2;14,4;-17,4;28,6;1299
2022-10-05 00:00:00;8,6;101265;91;0,0062;0,0;0,4;257;0,8;0,32;-0,17;0;0;0;29,0;30,9;32,1;16,6;12,4;13,6;14,2;14,4;-17,5;28,4;1336
2022-10-05 01:00:00;8,2;101240;91;0,0061;0,0;0,3;223;0,6;0,3;-0,09;0;0;0;29,0;30,9;32,0;16,6;12,1;13,5;14,1;14,4;-17,7;28,4;1305
2022-10-05 02:00:00;9,3;101202;88;0,0064;0,0;0,7;146;1,6;0,17;-0,38;0;0;0;28,9;30,8;32,0;16,6;11,8;13,3;14,1;14,4;-17,8;28,5;1359
2022-10-05 03:00:00;9,7;101173;92;0,0069;0,02;0,8;111;2,0;-0,02;0,31;0;0;0;28,9;30,8;32,0;16,6;11,7;13,1;14,0;14,4;-17,8;28,3;1300
2022-10-05 04:00:00;10,9;101140;89;0,0072;0,0;0,9;234;2,9;-0,52;-0,68;0;0;0;28,9;30,8;32,0;16,6;11,6;12,9;14,0;14,5;-18,0;28,6;1281
2022-10-05 05:00:00;10,6;101138;90;0,007;0,02;0,8;220;1,9;-0,52;-0,44;2;0;0;28,9;30,7;32,0;16,6;11,6;12,8;13,9;14,5;-18,0;28,8;1352
2022-10-05 06:00:00;11,7;101130;89;0,0075;0,0;1,2;153;2,9;-0,89;0,64;33;0;0;28,9;30,7;31,9;16,6;11,7;12,7;13,8;14,5;-18,2;28,7;1344
2022-10-05 07:00:00;12,9;101123;89;0,0081;0,0;1,8;101;3,3;-0,32;1,68;107;0;0;28,9;30,7;31,9;16,6;12,0;12,7;13,8;14,5;-18,2;28,8;1302
2022-10-05 08:00:00;14,0;101128;86;0,0086;0,0;1,9;91;3,5;-0,06;1,88;194;0;0;28,9;30,7;31,9;16,6;12,6;12,8;13,7;14,5;-18,3;28,8;1322
2022-10-05 09:00:00;15,8;101093;83;0,0092;0,0;2,7;89;4,5;0,07;2,65;353;0;0;28,9;30,7;31,9;16,6;13,5;13,0;13,6;14,4;-18,4;28,7;1358
2022-10-05 10:00:00;18,0;101030;74;0,0095;0,0;3,3;197;6,3;-1,12;-1,18;456;0;0;28,8;30,7;31,8;16,6;14,7;13,3;13,6;14,4;-18,5;28,7;1406
2022-10-05 11:00:00;19,3;100977;67;0,0093;0,0;3,3;241;7,2;-1,59;-2,88;446;0;0;28,8;30,6;31,8;16,6;15,7;13,7;13,6;14,4;-18,6;28,6;1393
2022-10-05 12:00:00;19,6;100908;65;0,0091;0,0;3,6;215;7,4;-2,83;-2,02;417;0;0;28,7;30,6;31,8;16,6;16,2;14,2;13,7;14,4;-18,7;28,5;1417
2022-10-05 13:00:00;20,0;100845;64;0,0093;0,0;3,5;192;7,5;-3,33;-0,72;331;0;0;28,6;30,6;31,8;16,6;16,5;14,6;13,8;14,4;-18,8;28,8;1360
2022-10-05 14:00:00;20,2;100797;64;0,0094;0,0;3,5;186;7,0;-3,51;-0,42;237;0;0;28,5;30,6;31,7;16,6;16,6;14,9;13,9;14,4;-18,9;28,9;1450
2022-10-05 15:00:00;20,6;100812;65;0,0097;0,0;2,6;200;5,4;-2,39;-0,87;138;0;0;28,4;30,5;31,7;16,7;16,5;15,2;14,0;14,4;-19,0;28,8;1336
2022-10-05 16:00:00;20,0;100900;68;0,0098;0,0;1,8;202;4,2;-1,67;-0,69;22;0;0;28,3;30,5;31,7;16,7;16,3;15,3;14,2;14,4;-19,1;28,4;1311
2022-10-05 17:00:00;19,7;101000;67;0,0095;0,0;2,6;265;4,8;-0,18;-2,59;0;0;0;28,3;30,5;31,7;16,7;16,1;15,4;14,3;14,4;-19,2;28,4;1431
2022-10-05 18:00:00;19,3;101097;65;0,0089;0,0;2,9;282;5,9;0,46;-2,85;0;0;0;28,2;30,4;31,7;16,7;15,9;15,4;14,4;14,4;-19,4;28,1;1359
2022-10-05 19:00:00;18,2;101130;67;0,0087;0,0;3,0;269;5,4;-0,05;-2,99;0;0;0;28,2;30,4;31,7;16,7;15,6;15,4;14,5;14,4;-19,5;28,2;1379
2022-10-05 20:00:00;17,6;101185;68;0,0084;0,0;4,0;272;7,0;0,13;-3,96;0;0;0;28,2;30,4;31,6;16,7;15,3;15,3;14,6;14,4;-19,6;28,1;1381
2022-10-05 21:00:00;18,1;101247;68;0,0087;0,0;5,3;270;8,1;0,04;-5,25;0;0;0;28,1;30,3;31,6;16,7;15,2;15,2;14,6;14,4;-19,7;27,9;1379
2022-10-05 22:00:00;17,4;101352;73;0,0089;0,07;4,9;280;10,2;0,94;-4,71;0;0;0;28,1;30,3;31,6;16,7;15,1;15,2;14,7;14,5;-19,8;27,8;1324
2022-10-05 23:00:00;15,4;101510;79;0,0084;0,0;4,0;282;7,4;0,87;-3,9;0;0;0;28,1;30,3;31,6;16,7;15,0;15,1;14,7;14,5;-19,9;28,0;1322
2022-10-06 00:00:00;14,6;101618;80;0,0082;0,29;4,1;288;8,0;1,32;-3,9;0;0;0;28,1;30,2;31,6;16,7;14,9;15,0;14,7;14,5;-20,0;28,1;1241
2022-10-06 01:00:00;14,5;101680;80;0,0081;0,0;3,6;282;7,2;0,78;-3,55;0;0;0;28,1;30,2;31,6;16,7;14,6;14,9;14,7;14,5;-20,2;28,2;1254
2022-10-06 02:00:00;13,9;101760;79;0,0077;0,0;3,5;285;6,8;0,95;-3,38;0;0;0;28,1;30,2;31,5;16,8;14,3;14,8;14,7;14,6;-20,3;27,9;1349
2022-10-06 03:00:00;12,9;101853;80;0,0073;0,0;2,2;280;4,1;0,39;-2,18;0;0;0;28,1;30,2;31,5;16,8;14,0;14,7;14,7;14,6;-20,4;28,0;1363
2022-10-06 04:00:00;11,9;101958;80;0,0068;0,0;1,8;280;3,7;0,36;-1,8;0;0;0;28,1;30,1;31,5;16,8;13,6;14,5;14,7;14,6;-20,5;27,8;1246
2022-10-06 05:00:00;10,9;102043;81;0,0065;0,0;1,3;288;3,0;0,36;-1,27;1;0;0;28,0;30,1;31,5;16,8;13,3;14,3;14,7;14,6;-20,7;27,5;1368
2022-10-06 06:00:00;10,7;102117;82;0,0065;0,0;3,0;271;4,7;0,06;-3,0;52;0;0;28,0;30,1;31,5;16,8;12,9;14,1;14,7;14,7;-20,7;27,7;1219
2022-10-06 07:00:00;11,7;102190;82;0,0069;0,0;2,9;272;4,6;0,1;-2,86;123;0;0;28,0;30,1;31,5;16,8;12,8;14,0;14,6;14,7;-20,9;27,6;1247
2022-10-06 08:00:00;13,6;102265;79;0,0075;0,0;2,7;272;5,0;0,1;-2,68;286;0;0;28,0;30,0;31,4;16,8;13,2;13,8;14,5;14,7;-21,0;27,6;1277
2022-10-06 09:00:00;15,0;102323;71;0,0074;0,0;2,9;286;5,6;0,82;-2,75;388;0;0;28,0;30,0;31,4;16,8;14,1;13,8;14,5;14,7;-21,1;27,8;1287
2022-10-06 10:00:00;15,8;102340;64;0,007;0,0;3,4;282;6,6;0,71;-3,35;445;0;0;27,9;30,0;31,4;16,9;15,1;14,0;14,4;14,7;-21,2;27,8;1238
2022-10-06 11:00:00;16,8;102320;58;0,0068;0,0;3,1;283;5,7;0,71;-3,01;465;0;0;27,9;30,0;31,4;16,9;15,8;14,3;14,4;14,7;-21,3;27,7;1279
2022-10-06 12:00:00;17,6;102303;53;0,0065;0,0;2,7;292;5,6;1,06;-2,52;437;0;0;27,8;30,0;31,3;16,9;16,2;14,7;14,4;14,7;-21,4;27,4;1261
2022-10-06 13:00:00;18,0;102250;52;0,0066;0,0;1,8;275;4,3;0,16;-1,77;340;0;0;27,7;29,9;31,3;16,9;16,6;15,0;14,4;14,7;-21,6;27,1;1332
2022-10-06 14:00:00;18,3;102247;51;0,0065;0,0;2,0;286;4,0;0,55;-1,94;258;0;0;27,6;29,9;31,3;16,9;16,6;15,2;14,5;14,7;-21,7;26,6;1296
2022-10-06 15:00:00;18,4;102243;50;0,0065;0,0;1,4;294;3,3;0,58;-1,26;155;0;0;27,6;29,9;31,3;16,9;16,4;15,4;14,6;14,7;-21,8;26,6;1303
2022-10-06 16:00:00;17,5;102235;53;0,0064;0,0;1,0;308;2,3;0,64;-0,82;52;0;0;27,5;29,8;31,3;16,9;16,1;15,5;14,6;14,7;-21,9;26,7;1294
2022-10-06 17:00:00;14,2;102267;64;0,0063;0,0;0,6;314;1,2;0,4;-0,43;1;0;0;27,4;29,8;31,2;16,9;15,5;15,5;14,7;14,7;-22,0;26,4;1275
2022-10-06 18:00:00;11,0;102290;74;0,0059;0,0;0,6;294;1,1;0,26;-0,56;0;0;0;27,4;29,8;31,2;17,0;14,7;15,3;14,8;14,7;-22,1;26,6;1296
2022-10-06 19:00:00;9,8;102300;78;0,0058;0,0;0,6;230;1,0;0,11;-0,43;0;0;0;27,4;29,8;31,2;17,0;14,2;15,1;14,8;14,7;-22,3;26,4;1276
2022-10-06 20:00:00;8,4;102305;83;0,0056;0,0;0,3;198;0,7;0,21;-0,02;0;0;0;27,3;29,7;31,2;17,0;13,6;14,8;14,9;14,7;-22,4;26,5;1245
2022-10-06 21:00:00;7,6;102290;87;0,0055;0,0;0,4;23;1,0;0,41;0,17;0;0;0;27,3;29,7;31,2;17,0;13,1;14,6;14,8;14,7;-22,5;26,8;1302
2022-10-06 22:00:00;7,1;102270;89;0,0055;0,0;0,5;96;1,2;0,47;0,08;0;0;0;27,3;29,7;31,2;17,0;12,7;14,3;14,8;14,8;-22,6;26,8;1297
2022-10-06 23:00:00;6,3;102223;91;0,0053;0,0;0,5;143;1,3;0,44;0,21;0;0;0;27,3;29,6;31,1;17,0;12,3;14,0;14,8;14,8;-22,8;26,6;1350
2022-10-07 00:00:00;6,2;102178;91;0,0053;0,0;0,7;26;1,3;0,67;0,32;0;0;0;27,3;29,6;31,1;17,0;11,9;13,7;14,7;14,8;-22,8;26,7;1335
2022-10-07 01:00:00;5,8;102130;93;0,0052;0,0;0,5;21;1,0;0,44;0,17;0;0;0;27,2;29,6;31,1;17,1;11,6;13,5;14,6;14,8;-22,9;26,7;1374
2022-10-07 02:00:00;5,2;102057;93;0,005;0,02;0,3;106;0,8;0,3;0,08;0;0;0;27,2;29,5;31,1;17,1;11,2;13,2;14,5;14,8;-23,0;26,8;1360
2022-10-07 03:00:00;4,8;101992;93;0,0049;0,04;0,4;22;0,8;0,36;0,15;0;0;0;27,2;29,5;31,1;17,1;10,9;13,0;14,4;14,8;-23,0;26,8;1322
2022-10-07 04:00:00;4,2;101957;93;0,0047;0,0;0,4;348;0,7;0,36;-0,07;0;0;0;27,2;29,5;31,0;17,1;10,6;12,7;14,3;14,8;-23,2;26,9;1375
2022-10-07 05:00:00;4,4;101908;92;0,0047;0,02;0,5;175;0,9;0,41;0,01;2;0;0;27,2;29,5;31,0;17,1;10,3;12,5;14,2;14,8;-23,2;27,0;1360
2022-10-07 06:00:00;5,9;101860;95;0,0054;0,02;0,8;40;1,4;0,63;0,52;76;0;0;27,2;29,4;31,0;17,1;10,1;12,3;14,0;14,8;-23,4;26,9;1320
2022-10-07 07:00:00;8,4;101863;98;0,0066;0,02;1,3;76;2,3;0,29;1,22;181;0;0;27,2;29,4;31,0;17,1;10,3;12,1;13,9;14,8;-23,5;26,9;1275
2022-10-07 08:00:00;11,1;101820;87;0,0071;0,0;1,3;76;2,3;0,32;1,27;281;0;0;27,2;29,4;31,0;17,2;11,1;12,0;13,8;14,8;-23,5;26,8;1248
2022-10-07 09:00:00;13,9;101765;79;0,0077;0,0;1,5;64;2,9;0,63;1,34;365;0;0;27,2;29,4;30,9;17,2;12,2;12,1;13,7;14,8;-23,6;26,8;1344
2022-10-07 10:00:00;16,4;101683;68;0,0078;0,0;1,5;203;3,4;-0,59;-0,68;433;0;0;27,2;29,4;30,9;17,2;13,4;12,4;13,6;14,7;-23,7;26,8;1383
2022-10-07 11:00:00;17,4;101590;62;0,0075;0,0;1,5;226;3,7;-0,98;-1,08;447;0;0;27,1;29,4;30,9;17,2;14,5;12,8;13,5;14,7;-23,8;26,8;1350
2022-10-07 12:00:00;18,1;101480;59;0,0075;0,0;1,4;197;3,5;-1,06;-0,27;426;0;0;27,1;29,3;30,9;17,2;15,2;13,3;13,5;14,7;-23,9;26,9;1325
2022-10-07 13:00:00;18,9;101336;56;0,0075;0,0;1,2;191;3,2;-0,54;-0,16;336;0;0;27,0;29,3;30,8;17,2;15,6;13,8;13,6;14,6;-24,1;27,2;1422
2022-10-07 14:00:00;19,2;101270;56;0,0077;0,0;1,4;118;3,0;-0,64;1,21;266;0;0;27,0;29,3;30,8;17,2;15,7;14,2;13,7;14,6;-24,2;27,2;1405
2022-10-07 15:00:00;18,8;101220;58;0,0078;0,0;1,7;82;3,3;0,38;1,59;161;0;0;26,9;29,3;30,8;17,3;15,5;14,4;13,8;14,6;-24,3;27,3;1372
2022-10-07 16:00:00;17,0;101175;67;0,008;0,0;1,0;100;2,0;0,11;0,82;44;0;0;26,8;29,3;30,8;17,3;15,1;14,6;13,9;14,6;-24,4;27,2;1372
2022-10-07 17:00:00;14,1;101170;71;0,0071;0,0;0,6;143;1,4;-0,08;0,08;0;0;0;26,8;29,2;30,8;17,3;14,6;14,6;14,0;14,5;-24,5;27,5;1433
2022-10-07 18:00:00;13,6;101197;70;0,0067;0,0;1,6;282;2,8;0,36;-1,56;0;0;0;26,7;29,2;30,8;17,3;14,1;14,5;14,1;14,5;-24,7;27,7;1444
2022-10-07 19:00:00;11,9;101207;75;0,0064;0,0;1,3;278;2,7;0,24;-1,29;0;0;0;26,7;29,2;30,8;17,3;13,7;14,3;14,2;14,5;-24,8;27,5;1430
2022-10-07 20:00:00;11,3;101205;77;0,0063;0,0;1,7;277;2,8;0,21;-1,73;0;0;0;26,7;29,2;30,7;17,4;13,3;14,1;14,2;14,5;-24,9;27,1;1393
2022-10-07 21:00:00;10,3;101197;81;0,0062;0,0;1,9;279;3,0;0,33;-1,9;0;0;0;26,7;29,2;30,7;17,4;13,0;14,0;14,2;14,5;-25,0;26,9;1436
2022-10-07 22:00:00;9,5;101173;82;0,006;0,0;1,3;294;2,5;0,44;-1,18;0;0;0;26,6;29,1;30,7;17,4;12,6;13,8;14,2;14,5;-25,2;26,8;1419
2022-10-07 23:00:00;8,8;101137;83;0,0058;0,0;0,6;330;1,1;0,45;-0,34;0;0;0;26,6;29,1;30,7;17,4;12,3;13,6;14,2;14,5;-25,3;26,9;1418
2022-10-08 00:00:00;8,8;101118;84;0,0058;0,0;0,6;189;1,2;0,46;0,14;0;0;0;26,6;29,1;30,7;17,4;11,9;13,4;14,2;14,5;-25,3;26,8;1357
2022-10-08 01:00:00;9,0;101100;83;0,0059;0,0;1,2;202;2,3;0,43;-0,83;0;0;0;26,6;29,1;30,7;17,4;11,6;13,2;14,1;14,5;-25,4;26,6;1478
2022-10-08 02:00:00;8,8;101072;83;0,0058;0,0;0,9;296;1,6;0,35;-0,81;0;0;0;26,6;29,0;30,6;17,5;11,4;13,0;14,0;14,5;-25,5;26,7;1451
2022-10-08 03:00:00;9,1;101057;84;0,006;0,0;1,4;289;2,5;0,43;-1,31;0;0;0;26,6;29,0;30,6;17,5;11,3;12,8;14,0;14,6;-25,6;26,7;1440
2022-10-08 04:00:00;9,9;101098;84;0,0063;0,0;1,0;289;2,3;0,32;-0,93;0;0;0;26,6;29,0;30,6;17,5;11,3;12,7;13,9;14,6;-25,8;26,8;1387
2022-10-08 05:00:00;10,6;101137;85;0,0067;0,0;0,8;278;1,7;0,2;-0,65;0;0;0;26,6;29,0;30,6;17,5;11,4;12,6;13,8;14,6;-25,7;26,6;1362
2022-10-08 06:00:00;11,1;101180;88;0,0071;0,0;1,1;171;2,7;0,54;-0,32;26;0;0;26,6;29,0;30,6;17,5;11,6;12,5;13,7;14,6;-25,8;26,7;1439
2022-10-08 07:00:00;12,8;101260;88;0,008;0,0;3,0;287;5,6;0,9;-2,91;134;0;0;26,6;28,9;30,6;17,5;11,9;12,5;13,7;14,5;-25,9;27,0;1480